Location: S�deilles
(46.7500°N, 6.9329°E)
Time: 01:26:27
(UTC+00:00)

USA 234 - Pass Details

Date: 08 March 2021
Orbit: 1102 x 1105 km, 123.0° (Epoch: 18 April)

Event Time Altitude Azimuth Distance (km) Brightness Sun altitude
Exits shadow 21:20:35 46° 280° (W) 1,439 4.0 -37.8°
Drops below altitude 10° 21:25:15 10° 255° (WSW) 2,959 5.8 -38.4°
Sets 21:27:45 0° 252° (WSW) 3,915 6.5 -38.7°
